Летний Наволок

Россия / Архангельская область     65°09′22″N   37°05′57″E
темп.,
°C
ветер,
м/с
пор.,
м/с
влажн.,
%
обл.,
%
осадки,
мм/ч
давл.,
гПа
погр.,
м
23 октября, сб
сб2300:00+3св151671100 0.6 9861561
03:00+3св151571100 0.8 9901237
06:00+3св151574100 0.0 9931044
09:00+3св141570100 0.0 9961018
12:00+3ссв111269100 0.0 1001937
15:00+3ссв10106592 0.0 1004976
18:00+2ссв9966100 0.0 10071071
21:00+2ссв8869100 0.0 10091002
24 октября, вс
вс2400:00+2с6668100 0.1 10101032
03:00+2ссз6763100 0.2 10111079
06:00+3сз7762100 0.0 10111041
09:00+2зсз77675 0.0 1012794
12:00+2зсз1010675 0.0 1014759
15:00+2зсз101167100 0.0 1014707
18:00+2зсз111364100 0.0 1015895
21:00+2сз10107356 0.0 1015899
25 октября, пн
пн2500:00+2сз886958 0.0 10161133
03:00+3сз666493 0.1 10171151
06:00+3сз336140 0.1 10171023
09:00+2зюз116321 0.1 1016698
12:00+1ююз4476100 0.0 1016494
15:00+1ююв5674100 0.0 1015604
18:00+1ююв7876100 0.0 1013534
21:00+1юв7873100 0.0 1011479
26 октября, вт
вт2600:00+1юв7979100 0.0 1010545
03:000юв91094100 0.4 1008571
06:000юв8994100 0.7 1006538
09:000юв8894100 1.4 1005507
12:00+1юв7895100 0.6 1004463
15:00+1юв7897100 1.1 1003457
18:00+1вюв8899100 1.6 1002399
21:00+2вюв88100100 3.4 1000368
27 октября, ср
ср2700:00+2вюв7799100 1.2 999367
03:00+3в8898100 3.4 997378
06:00+2всв111099100 1.4 996509
09:00+1всв101197100 3.1 997650
12:00+1св121290100 0.7 999958
15:00+1св151684100 1.0 10021307
18:00+1ссв141587100 1.1 10061355
21:00+2ссв141463100 1.5 10091676